ATLAS AGENA B DEB, 3132

Orbit data source: Space-Track

ATLAS AGENA B DEB, 3132 is space debris in LEO originally from a launch on Fri, 19 Jul 1963 UTC launched from the Air Force Western Test Range (AFWTR). Debris objects in space refer to the collection of defunct objects orbiting the Earth. Examples of debris include non-operational satellites, rocket bodies, and fragments generated from explosions, collisions, or faulty payload assembly.

Loading next visibility...
Identifier
3132, 1963-030G
Orbit
LEO
Country
Flag of USUS
Related business
Manufacturer
Unknown
Mission
Spacecraft
Bus & Motor
Unknown
Mass
Unknown
Launch date (UTC)
1963-07-19 (62 years ago)
Launch vehicle
Unknown
Launch site
Air Force Western Test Range (AFWTR)
Object type
Payload
Rocket body
Debris
Shape & HBR
Unknown shape, 1.1 m
Radar Cross Section
Medium (>0.1 m² and <1 m²)

Expand to show TLE details & history
Last TLE update: 3 weeks ago

TLE from 3 weeks ago
0 ATLAS AGENA B DEB
1 03132U 63030G   25273.81707413  .00000026  00000-0  11967-1 0  9994
2 03132  88.4264 226.0125 0095593 317.5355  41.8130  8.57861568437624
Epoch: 2025-09-30T19:36Z
TLE epoch observation values (Epoch: 2025-09-30T19:36:35.204Z)
Latitude
0.00002°
Longitude
-77.93518°
Altitude
3,632.551 km
Speed
6.333 km/s
True Right ascension
15h 04m 03s
True Declination
0° 00' 00"
Sunlit
Object was in daylight at epoch
Visualization orbit readout
Latitude
Unknown
Longitude
Unknown
Altitude
Unknown
Speed
Unknown
Apparent Right ascension
Unknown
Apparent Declination
Unknown
Sunlit
N/A
Visualization observer readout
Local Sidereal Time
16:17:21
Azimuth
Unknown
Elevation
Unknown
Doppler factor
Unknown
Orbital elements
Apogee altitude
3,795.945 km
Perigee altitude
3,603.272 km
Semi-major axis
10,077.745 km
Eccentricity
0.00956
Inclination
88.4264°
RAAN
226.0125°
Arg. of periapsis
317.5355°
True anomaly
42.54985°
Mean anomaly
41.813°
Eccentric anomaly
42.18077°
Mean motion
2.14535 °/min
Orbital period
167.8 mins
BSTAR
0.011967
Loading maneuver chart data...
Computing Atmospheric mass density...
Loading historical data...
Loading historical data...
Loading historical data...
Loading historical data...
Loading historical data...
Loading historical data...
Loading historical data...

Documentation

Showing up to 5 results
|